Preview of NWS' New Version of Forecast
This preview is not operational and should not be used for support decisions.

Regional Weather Roundup (RWR)

Issued by National Weather Service (NWS)

                            
000
ASUS43 KTOP 210708
RWRKS 

WEATHER ROUNDUP FOR KANSAS
NATIONAL WEATHER SERVICE GOODLAND KS
200 AM CDT WED AUG 21 2019

NOTE:  "FAIR" INDICATES FEW OR NO CLOUDS BELOW 12,000 FEET WITH NO
SIGNIFICANT WEATHER AND/OR OBSTRUCTIONS TO VISIBILITY.

KSZ001>006-013>018-027>032-041>047-210800-
NORTHWEST KANSAS
  
CITY           SKY/WX    TMP DP  RH WIND       PRES   REMARKS
GOODLAND       PTCLDY    72  57  59 S12       30.04S                  
HAYS           PTCLDY    90  53  28 SW17      29.81R                  
HILL CITY      CLEAR     80  58  46 S12G20    29.96F                  
RUSSELL        CLEAR     79  58  48 S13       29.93F                  
$$

KSZ061>065-074>080-084>089-210800-
SOUTHWEST KANSAS
  
CITY           SKY/WX    TMP DP  RH WIND       PRES   REMARKS
DODGE CITY     CLEAR     76  59  55 SE7       30.05F                  
ELKHART        PTCLDY    72  58  60 S7        30.05S                  
GARDEN CITY    PTCLDY    77  57  50 E14       30.05F                  
GREAT BEND     LGT RAIN  85  61  44 SW20      29.95F                  
LIBERAL        CLEAR     81  62  52 S22G28    30.03F                  
PRATT          PTCLDY    88  55  32 S14G20    29.99F                  
$$

KSZ066>073-081>083-090>101-210800-
SOUTHEAST KANSAS
  
CITY           SKY/WX    TMP DP  RH WIND       PRES   REMARKS
CHANUTE        CLEAR     83  75  77 S9        29.97F                  
COFFEYVILLE    CLEAR     80  75  84 S8        29.97F                  
HUTCHINSON     CLEAR     81  70  69 SW3       29.95F                  
MEDICINE LODGE   N/A     80  67  64 SW9       29.99F                  
NEWTON           N/A     81  72  74 S12       29.96F                  
PARSONS        CLEAR     81  76  84 S7        29.99F                  
WICHITA INTL   MOCLDY    80  71  74 S8        29.96F                  
WICHITA JABRA  CLEAR     81  72  74 S8        29.96F                  
WICHITA MCCONL CLEAR     82  69  64 S12       29.97F                  
WINFIELD       CLEAR     81  72  74 S9        29.98F                  
$$

KSZ007>012-019>026-033>040-048>060-102>105-210800-
NORTHEAST KANSAS
  
CITY           SKY/WX    TMP DP  RH WIND       PRES   REMARKS
CONCORDIA      CLEAR     80  76  87 S10       29.89F                  
EMPORIA        CLOUDY    80  76  87 N10       29.98R                  
LAWRENCE       MOCLDY    81  76  84 E7        29.95F                  
MANHATTAN      PTCLDY    80  76  87 CALM      29.93F                  
MARYSVILLE     CLEAR     79  77  94 SE7       29.88F                  
OLATHE IND     CLEAR     80  75  84 SE8       29.98F                  
OLATHE EXE     CLEAR     79  76  90 SE6       29.98F                  
SALINA         CLEAR     82  71  69 CALM      29.92F                  
TOPEKA BILLARD PTCLDY    79  75  87 CALM      29.93F                  
TOPEKA FORBES  PTCLDY    79  75  87 CALM      29.95F                  
$$